www.pogodaiklimat.ru

Архив погоды в Тольке (Ямало-Ненецкий АО, Россия)

Время
(UTC), дата
06 29.01
09 29.01
12 29.01
15 29.01
18 29.01
21 29.01
00 30.01
03 30.01
06 30.01
12 30.01
15 30.01
18 30.01
21 30.01
00 31.01
03 31.01
09 31.01
12 31.01
15 31.01
18 31.01
21 31.01
00 1.02
03 1.02
06 1.02
09 1.02
12 1.02
15 1.02
18 1.02
21 1.02
00 2.02
03 2.02
06 2.02
09 2.02
12 2.02
15 2.02
18 2.02
21 2.02
00 3.02
03 3.02
06 3.02
09 3.02
12 3.02
15 3.02
18 3.02
21 3.02
00 4.02
03 4.02
06 4.02
09 4.02
12 4.02
15 4.02
18 4.02
Ветер
(напр.,м/с)
Видим. Явления Облачность Т
(С)
Тd
(С)
f
(%)
Тe
(С)
Тes
(С)
Комфортность P
(гПа)
Po
(гПа)
Тmin
(С)
Tmax
(С)
R
(мм)
R24
(мм)
S
(см)
ЮЗ 2 4000 м слаб. ливневой снег 10/3 300 м
[Cb calv Ci sp]
-10.6 -12.2 88 -15 -15 998.3 994.2
З 3 50 км {ливн. снег} 9/0
[Ac trans]
-13.4 -15.6 83 -20 -20 1000.0 995.8
н/о -22.7 1002.0 997.7
З 1 20 км {снег} ясно -26.6 -29.2 79 -30 -30 1004.2 999.8 -10.1 2
З 1 20 км {снег} ясно -28.6 -31.1 79 -33 -33 опасность
обморожения
1006.2 1001.8
З 1 20 км ясно -27.7 -30.3 78 -32 -32 опасность
обморожения
1009.5 1005.0
ЮЗ 1 20 км ясно -31.2 -34.3 74 -35 -35 опасность
обморожения
1012.1 1007.5
ЮЗ 1 20 км 3/0
[Ci fib]
-31.7 -34.8 74 -36 -36 опасность
обморожения
1014.6 1010.1 -32.1 67
Ю 1 50 км 10/10 120 м
[St]
-24.9 -27.6 78 -28 -28 1017.0 1012.6
ЮВ 1 20 км {туман} [диам. изморози 3 мм] 3/0
[Ci fib]
-26.0 -28.8 77 -30 -30 1019.9 1015.4
ЮВ 2 20 км [диам. изморози 3 мм] ясно -23.1 -25.8 78 -29 -29 1018.8 1014.4 -23.0
ЮВ 2 20 км ясно -21.9 -24.3 81 -28 -28 1018.1 1013.7
ЮВ 1 4000 м слаб. снег [диам. изморози 3 мм] 10/6 480 м
[Sc As op]
-18.8 -21.0 83 -22 -22 1016.8 1012.2
Ю 2 4000 м слаб. снег [диам. изморози 3 мм] 10/8 450 м
[Sc As op]
-16.4 -18.4 84 -22 -22 1015.2 1011.9
Ю 2 4000 м слаб. снег [диам. изморози 3 мм] 10/6 450 м
[Sc As op]
-14.4 -16.2 86 -19 -19 1016.3 1012.0 -23.2 0.2 66
Ю 2 10 км снежные кристаллы [диам. изморози 3 мм] 10/10 400 м
[Sc]
-11.2 -13.0 87 -16 -16 1017.7 1013.5
Ю 1 10 км снежные кристаллы [диам. изморози 3 мм] 10/10 400 м
[Sc]
-11.1 -12.7 88 -13 -13 1019.0 1014.8
Ю 1 4000 м слаб. снег 10/10 930 м
[Sc]
-10.8 -12.4 88 -13 -13 1019.9 1015.7 -10.8 0.2
Ю 1 10 км снежные кристаллы 9/9 500 м
[Sc]
-11.1 -12.7 88 -13 -13 1020.6 1016.4
Ю 1 20 км ясно -17.5 -19.4 85 -20 -20 1021.9 1017.6
ЮВ 1 10 км снежные кристаллы 10/5 300 м
[Sc Cs]
-16.8 -18.8 84 -20 -20 1022.2 1017.9
ЮВ 2 20 км 10/3 300 м
[Sc Ci fib]
-16.1 -18.0 85 -21 -21 1021.7 1017.4 -19.8 0.0 66
ЮВ 3 4000 м слаб. ливневой снег 10/8 330 м
[Cb cap Ac und]
-13.0 -14.8 86 -19 -19 1020.6 1016.4
Ю 3 50 км 10/0
[Ac trans Ci fib]
-10.5 -12.6 85 -16 -16 1019.7 1015.5
Ю 2 4000 м слаб. ливневой снег 10/10 400 м
[Cb cap]
-10.1 -11.9 87 -15 -15 1018.9 1014.6
Ю 1 4000 м слаб. ливневой снег 10/10 480 м
[Cb cap]
-9.7 -11.6 86 -12 -12 1018.7 1014.5 -9.7 0.4
ЮЗ 2 4000 м слаб. ливневой снег 10/10 360 м
[Cb cap]
-9.5 -11.5 85 -14 -14 1019.2 1015.0
ЮЗ 1 4000 м слаб. ливневой снег 10/10 360 м
[Cb cap]
-11.1 -12.8 87 -13 -13 1020.3 1016.1
Ю 1 4000 м слаб. ливневой снег 10/10 300 м
[Cb cap]
-10.6 -12.2 88 -13 -13 1020.5 1016.3
Ю 1 4000 м слаб. ливневой снег 10/10 330 м
[Cb cap]
-9.5 -11.0 89 -12 -12 1020.7 1016.5 -11.3 0.4 67
Ю 2 4000 м слаб. ливневой снег 10/10 330 м
[Cb cap]
-7.4 -8.8 90 -12 -12 1020.9 1016.7
ЮЗ 2 4000 м слаб. ливневой снег 10/10 330 м
[Cb cap]
-6.3 -7.7 90 -11 -11 1020.7 1016.6
ЮЗ 2 4000 м слаб. ливневой снег 10/10 400 м
[Cb cap]
-6.2 -7.6 90 -11 -11 1020.8 1016.7
З 2 4000 м слаб. ливневой снег 10/10 330 м
[Cb cap]
-5.6 -7.1 89 -10 -10 1021.1 1017.0 -5.6 0.8
З 2 4000 м слаб. ливневой снег 10/10 240 м
[Cb cap]
-5.1 -6.2 92 -9 -9 1021.9 1017.7
З 2 4000 м слаб. ливневой снег 10/10 270 м
[Cb cap]
-4.8 -5.9 92 -9 -9 1022.4 1018.3
ЮЗ 2 4000 м дымка 10/10 120 м
[St]
-5.2 -5.8 96 -10 -10 1022.6 1018.5
ЮЗ 2 4000 м дымка 10/10 100 м
[St]
-5.6 -6.5 93 -10 -10 1022.7 1018.5 -5.6 0.0 67
ЮЗ 2 50 км 10/10 180 м
[St]
-6.4 -7.3 93 -11 -11 1022.6 1018.4 -6.4
ЮЗ 1 50 км 10/10 180 м
[St]
-7.0 -8.1 92 -9 -9 1022.7 1018.5
ЮЗ 1 4000 м слаб. снег 10/8 180 м
[St As op]
-7.0 -8.0 93 -9 -9 1022.7 1018.6
ЮЗ 2 10 км снежные кристаллы 10/8 300 м
[Sc Ac As]
-8.0 -9.1 92 -13 -13 1021.8 1017.7 -5.6 0.2
Ю 1 10 км снежные кристаллы 10/8 420 м
[Sc Cs]
-9.5 -10.7 91 -12 -12 1021.5 1017.3
Ю 1 4000 м слаб. снег 10/8 420 м
[Sc As op]
-8.7 -9.9 91 -11 -11 1021.3 1017.1
ЮЗ 2 4000 м слаб. снег 10/8 400 м
[Sc As op]
-7.9 -9.1 91 -12 -12 1021.2 1017.0
З 2 4000 м слаб. ливневой снег 10/10 300 м
[Cb cap]
-9.2 -10.7 89 -14 -14 1021.9 1017.7 -9.5 2 67
З 2 4000 м слаб. ливневой снег 10/10 330 м
[Cb cap]
-10.0 -12.1 85 -15 -15 1022.6 1018.4 -10.0
ЮЗ 1 10 км слаб. снег {ливн. снег} 10/0
[Ac trans Cs]
-11.1 -13.4 83 -13 -13 1023.3 1019.1
Ю 1 4000 м слаб. ливневой снег 10/10 450 м
[Cb cap]
-12.2 -13.7 89 -14 -14 1023.6 1019.3
штиль 0 10 км снежные кристаллы {ливн. снег} 10/8 360 м
[Sc diur, vesp Cs]
-14.7 -16.3 88 -15 -15 1024.3 1020.0 -9.2 0.4
Ю 1 10 км 10/8 420 м
[Sc diur, vesp Cs]
-10.7 -12.2 89 -13 -13 1024.1 1019.8
Местоположение метеостанции Толька (Ямало-Ненецкий АО, Россия): широта 63.98 долгота 82.08 высота над уровнем моря 35 м.
В архиве по умолчанию представлена погода в Тольке за последнюю неделю. Архивные данные за месяц целиком и за предыдущие месяцы, начиная с января 2011 года, Вы можете получить, выбрав интересующий диапазон дат из раскрывающегося списка и нажав кнопку "Найти!".
*Определитесь, кто Вы:
Внимание! Время в таблицах - всемирное. Для получения местного времени необходимо прибавить поправку, которая равна 5 ч.
Смотрите также архив погоды в соседних городах и на ближайших метеорологических станциях:
Партнеры нашего сайта:      
Пояснения к столбцам:
  • Ветер - указаны скорость ветра в м/с - средняя за 10 мин, порывы в срок и между сроками (в фигурных скобках) и направление, откуда дует ветер: С - северный,
  • СВ - северо-восточный, В - восточный, ЮВ - юго-восточный, Ю - южный, ЮЗ - юго-западный, З - западный, СЗ - северо-западный.
  • Видимость - горизонтальная дальность видимости в метрах или километрах. При видимости от 1 до 10 км при отсутствии осадков обычно наблюдается дымка, при ухудшении видимости до 1 км и менее - туман. В сухую погоду видимость может ухудшаться дымом, пылью или мглою.
  • Явления - указаны атмосферные явления, наблюдавшиеся в срок или в последний час перед сроком; фигурными скобками обозначены явления, наблюдавшиеся между сроками (за 1-3 часа до срока); квадратными скобками обозначены град или гололедные отложения с указанием их диаметра в мм.
  • Облачность - указаны через наклонную черту общая и нижняя облачность в баллах и высота нижней границы облаков в метрах; квадратными скобками обозначены формы облаков: Ci - перистые, Cs - перисто-слоистые, Cc - перисто-кучевые, Ac - высококучевые, As - высокослоистые, Sc - слоисто-кучевые, Ns - слоисто-дождевые, Cu - кучевые, Cb - кучево-дождевые. Подробнее классификацию облаков см. в Атласе облаков (PDF).
  • T - Температура воздуха - температура, измеренная на высоте 2 м над землей.
  • Td - Температура точки росы - температура, при понижении до которой содержащийся в воздухе водяной пар достигнет насыщения.
  • f - Относительная влажность воздуха - влажноcть воздуха, измеренная на высоте 2 м над землей.
  • Te - Эффективная температура - температура, которую ощущает одетый по сезону человек в тени. Характеристика душности погоды. При расчете учитывается влияние влажности воздуха и скорости ветра на теплоощущения человека.
  • Tes - Эффективная температура на солнце - температура, которую ощущает человек, с поправкой на солнечный нагрев. Характеристика знойности погоды. Зависит от высоты солнца над горизонтом, облачности и скорости ветра. Ночью, в пасмурную погоду, а также при ветре 12 м/с и более поправка равна нулю.
  • P - Атмосферное давление - приведенное к уровню моря атмосферное давление.
  • Po - Атмосферное давление - измеренное на уровне метеостанции атмосферное давление.
  • Tmin - Минимальная температура - минимум температуры воздуха на высоте 2 м над землей.
  • Tmax - Максимальная температура - максимум температуры воздуха на высоте 2 м над землей.
  • R - Количество осадков - Количество выпавших осадков за период времени, мм. При наведении курсора мыши на число - период времени, за который выпало указанное количество осадков.
  • R24 - Количество осадков - Количество выпавших осадков за 24 часа, мм.
  • S - Снежный покров - Высота снежного покрова, см. При наведении курсора мыши на число - состояние снежного покрова и степень покрытия местности в баллах.